Greensboro, NC

5:40 PM EDT on October 18, 2017 (GMT -0400)
Piedmont Triad International

Weather History for KGSO - March, 2014

Change the Weather History Date:

Wednesday, March 26, 2014

  Actual Average Record
Temperature  
Mean Temperature 37 °F 53 °F  
Max Temperature 46 °F 64 °F 86 °F (1929)
Min Temperature 27 °F 42 °F 12 °F (1972)
Degree Days  
Heating Degree Days 28 12  
Month to date heating degree days 558 412  
Since 1 July heating degree days 3535 3267  
Cooling Degree Days 0 0  
Month to date cooling degree days 0 0  
Year to date cooling degree days 0 0  
Moisture  
Dew Point 11 °F    
Average Humidity 43    
Maximum Humidity 63    
Minimum Humidity 22    
Precipitation  
Precipitation 0.00 in 0.13 in 0.88 in (1978)
Month to date precipitation 4.11 3.11  
Year to date precipitation 10.33 9.13  
Snow  
Snow 0.00 in 0.10 in 2.80 in (1971)
Month to date snowfall 4.7 0.8  
Since 1 July snowfall 15.3 7.5  
Snow Depth 0.00 in    
Sea Level Pressure  
Sea Level Pressure 30.18 in    
Wind  
Wind Speed 10 mph (NW)    
Max Wind Speed 21 mph    
Max Gust Speed 28 mph    
Visibility 10 miles    
Events      
T = Trace of Precipitation, MM = Missing Value Source: NWS Daily Summary

Daily Weather History Graph

Daily Weather History Graph

Search for Another Location

Airport or City:

Trip Planner

Search our weather history database for the weather conditions in past years. The results will help you decide how hot, cold, wet, or windy it might be!

Date:

Astronomy

Mar. 26, 2014 Rise Set
Actual Time 7:14 AM EDT 7:36 PM EDT
Civil Twilight 6:49 AM EDT 8:02 PM EDT
Nautical Twilight 6:18 AM EDT 8:32 PM EDT
Astronomical Twilight 5:48 AM EDT 9:03 PM EDT
Moon 4:14 AM EDT (3/26) 3:20 PM EDT (3/26)
Length of Visible Light 13h 13m
Length of Day
12h 21m
Waning Crescent, 22% of the Moon is Illuminated
Mar 26
Waning Crescent
Mar 30
New
Apr 7
First Quarter
Apr 15
Full
Apr 22
Last Quarter

Hourly Weather History & Observations

Time (EDT) Temp. Windchill Dew Point Humidity Pressure Visibility Wind Dir Wind Speed Gust Speed Precip Events Conditions
12:54 AM 32.0 °F 21.6 °F 19.9 °F 61% 30.00 in 10.0 mi NW 15.0 mph - N/A   Clear
1:54 AM 30.9 °F 21.2 °F 19.0 °F 61% 30.02 in 10.0 mi WNW 12.7 mph - N/A   Mostly Cloudy
2:54 AM 30.9 °F 19.8 °F 14.0 °F 50% 30.03 in 10.0 mi NW 16.1 mph 25.3 mph N/A   Scattered Clouds
3:54 AM 30.0 °F 20.5 °F 10.9 °F 45% 30.06 in 10.0 mi NW 11.5 mph - N/A   Partly Cloudy
4:54 AM 28.9 °F 18.6 °F 10.0 °F 45% 30.06 in 10.0 mi NW 12.7 mph - N/A   Clear
5:54 AM 27.0 °F 18.0 °F 12.0 °F 53% 30.09 in 10.0 mi WNW 9.2 mph - N/A   Partly Cloudy
6:54 AM 28.0 °F 18.1 °F 12.0 °F 51% 30.12 in 10.0 mi NW 11.5 mph - N/A   Mostly Cloudy
7:54 AM 28.9 °F 18.6 °F 10.0 °F 45% 30.16 in 10.0 mi NW 12.7 mph - N/A   Mostly Cloudy
8:54 AM 30.9 °F 19.8 °F 9.0 °F 40% 30.19 in 10.0 mi WNW 16.1 mph - N/A   Partly Cloudy
9:54 AM 32.0 °F 20.5 °F 10.0 °F 40% 30.22 in 10.0 mi NW 18.4 mph 25.3 mph N/A   Partly Cloudy
10:54 AM 35.1 °F 24.5 °F 12.0 °F 39% 30.23 in 10.0 mi WNW 18.4 mph 24.2 mph N/A   Partly Cloudy
11:54 AM 37.0 °F 27.7 °F 10.9 °F 34% 30.24 in 10.0 mi WNW 16.1 mph 23.0 mph N/A   Partly Cloudy
12:54 PM 39.9 °F 31.1 °F 10.0 °F 29% 30.24 in 10.0 mi West 17.3 mph 27.6 mph N/A   Partly Cloudy
1:54 PM 42.1 °F 35.2 °F 10.0 °F 27% 30.23 in 10.0 mi WNW 12.7 mph 20.7 mph N/A   Partly Cloudy
2:54 PM 42.1 °F 37.1 °F 9.0 °F 26% 30.22 in 10.0 mi NW 8.1 mph 20.7 mph N/A   Partly Cloudy
3:54 PM 45.0 °F 38.2 °F 10.0 °F 24% 30.22 in 10.0 mi WNW 15.0 mph 23.0 mph N/A   Clear
4:54 PM 45.0 °F 38.5 °F 8.1 °F 22% 30.21 in 10.0 mi NW 13.8 mph 21.9 mph N/A   Clear
5:54 PM 45.0 °F 41.2 °F 9.0 °F 23% 30.22 in 10.0 mi WNW 6.9 mph - N/A   Clear
6:54 PM 44.1 °F 40.8 °F 8.1 °F 23% 30.24 in 10.0 mi WNW 5.8 mph - N/A   Clear
7:54 PM 41.0 °F 38.0 °F 9.0 °F 27% 30.24 in 10.0 mi NW 4.6 mph - N/A   Clear
8:54 PM 37.0 °F 33.3 °F 12.0 °F 36% 30.27 in 10.0 mi NW 4.6 mph - N/A   Clear
9:54 PM 37.0 °F - 10.9 °F 34% 30.29 in 10.0 mi Calm Calm - N/A   Clear
10:54 PM 34.0 °F - 14.0 °F 44% 30.30 in 10.0 mi Calm Calm - N/A   Clear
11:54 PM 32.0 °F - 15.1 °F 50% 30.31 in 10.0 mi Calm Calm - N/A   Clear